Weather History for Adrian, MI

Change the Weather History Date:

Wednesday, February 13, 2013

  Actual Average Record
Temperature  
Mean Temperature 32 °F -  
Max Temperature 37 °F 31 °F 58 °F (1961)
Min Temperature 26 °F 15 °F -9 °F (1979)
Degree Days  
Heating Degree Days 34    
Moisture  
Dew Point 23 °F    
Average Humidity 76    
Maximum Humidity 92    
Minimum Humidity 65    
Precipitation  
Precipitation 0.00 in - - ()
Sea Level Pressure  
Sea Level Pressure 29.85 in    
Wind  
Wind Speed 5 mph (WSW)    
Max Wind Speed 8 mph    
Max Gust Speed -    
Visibility 9 miles    
Events      
Averages and records for this station are not official NWS values.
T = Trace of Precipitation, MM = Missing Value Source: NWS Daily Summary

Daily Weather History Graph

Daily Weather History Graph

Search for Another Location

Airport:

Trip Planner

Search our weather history database for the weather conditions in past years. The results will help you decide how hot, cold, wet, or windy it might be!

Date:

Astronomy

Feb. 13, 2013 Rise Set
Actual Time 7:34 AM EST 6:07 PM EST
Civil Twilight 7:05 AM EST 6:35 PM EST
Nautical Twilight 6:33 AM EST 7:08 PM EST
Astronomical Twilight 6:00 AM EST 7:41 PM EST
Moon 8:58 AM EST (2/13) 10:13 PM EST (2/13)
Length of Visible Light 11h 30m
Length of Day
10h 32m
Waxing Crescent, 13% of the Moon is Illuminated
Feb 13
Waxing Crescent
Feb 17
First Quarter
Feb 25
Full
Mar 4
Last Quarter
Mar 11
New

Hourly Weather History & Observations

Time (EST) Temp. Windchill Dew Point Humidity Pressure Visibility Wind Dir Wind Speed Gust Speed Precip Events Conditions
12:53 AM 27.0 °F 18.7 °F 19.9 °F 75% 29.97 in 10.0 mi NW 8.1 mph - N/A   Overcast
1:53 AM 27.0 °F 20.5 °F 19.9 °F 75% 29.94 in 10.0 mi NW 5.8 mph - N/A   Overcast
2:53 AM 27.0 °F 21.6 °F 21.0 °F 78% 29.94 in 10.0 mi WNW 4.6 mph - N/A   Overcast
3:53 AM 27.0 °F 21.6 °F 19.9 °F 75% 29.92 in 10.0 mi WNW 4.6 mph - N/A   Overcast
4:53 AM 26.1 °F 20.5 °F 19.9 °F 78% 29.91 in 10.0 mi NNW 4.6 mph - N/A   Overcast
5:53 AM 27.0 °F 23.0 °F 19.9 °F 75% 29.91 in 10.0 mi North 3.5 mph - N/A   Overcast
6:53 AM 27.0 °F 21.6 °F 19.9 °F 75% 29.89 in 10.0 mi NNW 4.6 mph - N/A   Overcast
7:53 AM 26.1 °F 21.9 °F 19.9 °F 78% 29.88 in 10.0 mi ENE 3.5 mph - N/A   Overcast
8:53 AM 27.0 °F - 19.9 °F 75% 29.87 in 10.0 mi Calm Calm - N/A   Overcast
9:27 AM 26.6 °F - 19.4 °F 74% 29.82 in 10.0 mi Calm Calm - N/A   Overcast
9:53 AM 27.0 °F - 19.9 °F 75% 29.86 in 10.0 mi Calm Calm - N/A   Overcast
10:53 AM 28.0 °F 21.7 °F 21.0 °F 75% 29.88 in 10.0 mi South 5.8 mph - N/A   Overcast
11:34 AM 28.4 °F 20.4 °F 21.2 °F 74% 29.82 in 10.0 mi SW 8.1 mph - N/A   Scattered Clouds
11:53 AM 28.9 °F 22.8 °F 21.9 °F 75% 29.86 in 10.0 mi WSW 5.8 mph - N/A   Clear
12:53 PM 30.9 °F 27.5 °F 21.9 °F 69% 29.83 in 10.0 mi West 3.5 mph - N/A   Clear
1:53 PM 34.0 °F 27.2 °F 24.1 °F 67% 29.80 in 10.0 mi SW 8.1 mph - N/A   Clear
2:53 PM 35.1 °F 30.1 °F 25.0 °F 67% 29.78 in 10.0 mi SSW 5.8 mph - N/A   Clear
3:53 PM 37.0 °F 31.6 °F 26.1 °F 65% 29.77 in 10.0 mi SW 6.9 mph - N/A   Clear
4:53 PM 37.0 °F 31.6 °F 26.1 °F 65% 29.77 in 10.0 mi SW 6.9 mph - N/A   Clear
5:53 PM 34.0 °F 28.8 °F 26.1 °F 73% 29.78 in 9.0 mi SW 5.8 mph - N/A   Clear
6:53 PM 32.0 °F 27.5 °F 26.1 °F 79% 29.80 in 9.0 mi SSW 4.6 mph - N/A   Clear
7:53 PM 30.9 °F 25.2 °F 26.1 °F 82% 29.81 in 8.0 mi SW 5.8 mph - N/A   Partly Cloudy
8:53 PM 30.0 °F 25.2 °F 26.1 °F 85% 29.82 in 7.0 mi SW 4.6 mph - N/A   Clear
9:53 PM 28.9 °F - 26.1 °F 89% 29.83 in 7.0 mi Calm Calm - N/A   Partly Cloudy
10:53 PM 28.0 °F - 26.1 °F 92% 29.82 in 6.0 mi Calm Calm - N/A   Clear
11:53 PM 28.0 °F - 26.1 °F 92% 29.82 in 6.0 mi Calm Calm - N/A   Partly Cloudy